• In Deutschland
  • Länderverzeichnis
  • Für 7 Tage
  • Wassertemperatur
  • Satellitenkarten
  • Wetterkarte
  • Widgets
  • user-avatar
    Anmelden

    Stündliche Wetter Makoua

    Heute, 22 November, Mittwoch

    Zeit Temperatur Niederschläge Wind Luftdruck Luftfeuchtigkeit
    00:00 +23°C° 0 mm 0 m/S 725 mmHg 78%
    01:00 +23°C° 0 mm 0 m/S 725 mmHg 79%
    02:00 +23°C° 0 mm 0 m/S 725 mmHg 81%
    03:00 +22°C° 0 mm 0 m/S 725 mmHg 83%
    04:00 +24°C° 0 mm 1 m/S 725 mmHg 85%
    05:00 +23°C° 0 mm 0 m/S 725 mmHg 83%
    06:00 +23°C° 0 mm 0 m/S 725 mmHg 81%
    07:00 +24°C° 0 mm 0 m/S 726 mmHg 79%
    08:00 +27°C° 0,1 mm 0 m/S 726 mmHg 71%
    09:00 +29°C° 0,1 mm 0 m/S 726 mmHg 62%
    10:00 +32°C° 0,1 mm 0 m/S 726 mmHg 54%
    11:00 +32°C° 0,4 mm 0 m/S 725 mmHg 52%
    12:00 +33°C° 0,4 mm 0 m/S 725 mmHg 51%
    13:00 +33°C° 0,4 mm 0 m/S 724 mmHg 50%
    14:00 +32°C° 0,3 mm 0 m/S 723 mmHg 54%
    15:00 +31°C° 0,3 mm 0 m/S 723 mmHg 58%
    16:00 +30°C° 0,3 mm 0 m/S 723 mmHg 63%
    17:00 +30°C° 0,2 mm 1 m/S 723 mmHg 68%
    18:00 +29°C° 0,2 mm 1 m/S 723 mmHg 74%
    19:00 +27°C° 0,2 mm 1 m/S 724 mmHg 79%
    20:00 +26°C° 1,5 mm 1 m/S 724 mmHg 84%
    21:00 +26°C° 1,5 mm 1 m/S 725 mmHg 89%
    22:00 +25°C° 1,5 mm 1 m/S 725 mmHg 94%
    23:00 +24°C° 0,8 mm 1 m/S 725 mmHg 94%

    Morgen, 23 November, Donnerstag

    Zeit Temperatur Niederschläge Wind Luftdruck Luftfeuchtigkeit
    00:00 +24°C° 0,8 mm 1 m/S 725 mmHg 95%
    01:00 +24°C° 0,8 mm 1 m/S 725 mmHg 95%
    02:00 +24°C° 0,3 mm 1 m/S 725 mmHg 95%
    03:00 +24°C° 0,3 mm 1 m/S 724 mmHg 95%
    04:00 +24°C° 0,3 mm 1 m/S 724 mmHg 95%
    05:00 +24°C° 0,3 mm 1 m/S 725 mmHg 94%
    06:00 +24°C° 0,3 mm 1 m/S 725 mmHg 93%
    07:00 +25°C° 0,3 mm 1 m/S 725 mmHg 92%
    08:00 +27°C° 0,3 mm 1 m/S 726 mmHg 84%
    09:00 +29°C° 0,3 mm 1 m/S 726 mmHg 76%
    10:00 +30°C° 0,3 mm 1 m/S 726 mmHg 68%
    11:00 +31°C° 1,1 mm 1 m/S 725 mmHg 69%
    12:00 +31°C° 1,1 mm 1 m/S 725 mmHg 70%
    13:00 +31°C° 1,1 mm 1 m/S 724 mmHg 71%
    14:00 +30°C° 0,7 mm 1 m/S 724 mmHg 74%
    15:00 +30°C° 0,7 mm 1 m/S 723 mmHg 77%
    16:00 +29°C° 0,7 mm 1 m/S 723 mmHg 81%
    17:00 +28°C° 0,4 mm 1 m/S 724 mmHg 85%
    18:00 +27°C° 0,4 mm 1 m/S 724 mmHg 90%
    19:00 +25°C° 0,4 mm 1 m/S 725 mmHg 95%
    20:00 +25°C° 0,2 mm 1 m/S 725 mmHg 95%
    21:00 +25°C° 0,2 mm 1 m/S 726 mmHg 95%
    22:00 +24°C° 0,2 mm 1 m/S 726 mmHg 96%
    23:00 +24°C° 0 mm 1 m/S 726 mmHg 96%

    übermorgen, 24 November, Freitag

    Zeit Temperatur Niederschläge Wind Luftdruck Luftfeuchtigkeit
    00:00 +24°C° 0 mm 1 m/S 726 mmHg 96%
    01:00 +24°C° 0 mm 1 m/S 725 mmHg 96%
    02:00 +23°C° 0 mm 1 m/S 725 mmHg 96%
    03:00 +23°C° 0 mm 1 m/S 725 mmHg 96%
    04:00 +23°C° 0 mm 1 m/S 725 mmHg 97%
    05:00 +23°C° 0 mm 1 m/S 725 mmHg 95%
    06:00 +24°C° 0 mm 1 m/S 726 mmHg 94%
    07:00 +24°C° 0 mm 1 m/S 726 mmHg 92%
    08:00 +27°C° 0 mm 1 m/S 727 mmHg 81%
    09:00 +29°C° 0 mm 1 m/S 727 mmHg 70%
    10:00 +31°C° 0 mm 1 m/S 727 mmHg 59%
    11:00 +31°C° 0,9 mm 1 m/S 726 mmHg 63%
    12:00 +31°C° 0,9 mm 1 m/S 725 mmHg 67%
    13:00 +31°C° 0,9 mm 2 m/S 724 mmHg 71%
    14:00 +30°C° 0,7 mm 1 m/S 724 mmHg 73%
    15:00 +30°C° 0,7 mm 1 m/S 724 mmHg 76%
    16:00 +29°C° 0,7 mm 1 m/S 723 mmHg 79%
    17:00 +28°C° 0,1 mm 1 m/S 724 mmHg 83%
    18:00 +27°C° 0,1 mm 1 m/S 725 mmHg 88%
    19:00 +25°C° 0,1 mm 1 m/S 725 mmHg 93%
    20:00 +25°C° 0,2 mm 1 m/S 726 mmHg 93%
    21:00 +25°C° 0,2 mm 1 m/S 726 mmHg 94%
    22:00 +24°C° 0,2 mm 1 m/S 727 mmHg 95%
    23:00 +24°C° 0,3 mm 1 m/S 726 mmHg 95%

    25 November, Samstag

    Zeit Temperatur Niederschläge Wind Luftdruck Luftfeuchtigkeit
    00:00 +24°C° 0,3 mm 1 m/S 726 mmHg 95%
    01:00 +24°C° 0,3 mm 1 m/S 726 mmHg 96%
    02:00 +23°C° 0 mm 1 m/S 726 mmHg 95%
    03:00 +23°C° 0 mm 1 m/S 725 mmHg 95%
    04:00 +23°C° 0 mm 1 m/S 725 mmHg 95%
    05:00 +23°C° 0 mm 1 m/S 726 mmHg 94%
    06:00 +24°C° 0 mm 1 m/S 726 mmHg 92%
    07:00 +24°C° 0 mm 1 m/S 727 mmHg 91%
    08:00 +26°C° 0 mm 1 m/S 727 mmHg 80%
    09:00 +29°C° 0 mm 1 m/S 727 mmHg 69%
    10:00 +31°C° 0 mm 1 m/S 728 mmHg 58%
    11:00 +32°C° 0 mm 1 m/S 727 mmHg 53%
    12:00 +33°C° 0 mm 1 m/S 726 mmHg 49%
    13:00 +34°C° 0 mm 1 m/S 725 mmHg 44%
    14:00 +34°C° 0 mm 1 m/S 725 mmHg 48%
    15:00 +33°C° 0 mm 1 m/S 725 mmHg 51%
    16:00 +32°C° 0 mm 1 m/S 724 mmHg 54%
    17:00 +30°C° 0,1 mm 1 m/S 725 mmHg 62%
    18:00 +28°C° 0,1 mm 1 m/S 725 mmHg 70%
    19:00 +27°C° 0,1 mm 1 m/S 726 mmHg 78%
    20:00 +26°C° 0,1 mm 1 m/S 726 mmHg 81%
    21:00 +25°C° 0,1 mm 1 m/S 727 mmHg 85%
    22:00 +24°C° 0,1 mm 1 m/S 727 mmHg 88%
    23:00 +24°C° 0 mm 1 m/S 727 mmHg 88%

    26 November, Sonntag

    Zeit Temperatur Niederschläge Wind Luftdruck Luftfeuchtigkeit
    00:00 +24°C° 0 mm 1 m/S 726 mmHg 89%
    01:00 +24°C° 0 mm 1 m/S 726 mmHg 90%
    02:00 +22°C° 0 mm 0 m/S 726 mmHg 90%
    03:00 +22°C° 0 mm 0 m/S 726 mmHg 91%
    04:00 +21°C° 0 mm 0 m/S 726 mmHg 92%
    05:00 +22°C° 0,5 mm 0 m/S 727 mmHg 92%
    06:00 +22°C° 0,5 mm 0 m/S 727 mmHg 92%
    07:00 +22°C° 0,5 mm 0 m/S 728 mmHg 93%
    08:00 +24°C° 0,8 mm 0 m/S 728 mmHg 87%
    09:00 +27°C° 0,8 mm 1 m/S 728 mmHg 81%
    10:00 +29°C° 0,8 mm 1 m/S 729 mmHg 75%
    11:00 +31°C° 0,3 mm 1 m/S 728 mmHg 65%
    12:00 +31°C° 0,3 mm 0 m/S 727 mmHg 55%
    13:00 +33°C° 0,3 mm 0 m/S 727 mmHg 46%
    14:00 +32°C° 0 mm 0 m/S 726 mmHg 49%
    15:00 +32°C° 0 mm 1 m/S 726 mmHg 51%
    16:00 +31°C° 0 mm 1 m/S 725 mmHg 54%
    17:00 +30°C° 0 mm 1 m/S 726 mmHg 61%
    18:00 +28°C° 0 mm 1 m/S 726 mmHg 68%
    19:00 +26°C° 0 mm 1 m/S 727 mmHg 74%
    20:00 +25°C° 0 mm 1 m/S 727 mmHg 77%
    21:00 +25°C° 0 mm 1 m/S 727 mmHg 80%
    22:00 +24°C° 0 mm 1 m/S 728 mmHg 83%
    23:00 +24°C° 0 mm 1 m/S 727 mmHg 86%

    27 November, Montag

    Zeit Temperatur Niederschläge Wind Luftdruck Luftfeuchtigkeit
    00:00 +22°C° 0 mm 0 m/S 727 mmHg 89%
    01:00 +21°C° 0 mm 0 m/S 727 mmHg 91%
    02:00 +21°C° 0 mm 0 m/S 727 mmHg 92%
    03:00 +21°C° 0 mm 0 m/S 727 mmHg 94%
    04:00 +21°C° 0 mm 0 m/S 727 mmHg 95%
    05:00 +23°C° 0 mm 1 m/S 727 mmHg 92%
    06:00 +24°C° 0 mm 1 m/S 727 mmHg 89%
    07:00 +25°C° 0 mm 1 m/S 727 mmHg 87%
    08:00 +27°C° 0 mm 1 m/S 727 mmHg 76%
    09:00 +29°C° 0 mm 1 m/S 728 mmHg 66%
    10:00 +32°C° 0 mm 1 m/S 728 mmHg 56%
    11:00 +34°C° 0 mm 1 m/S 727 mmHg 50%
    12:00 +36°C° 0 mm 1 m/S 726 mmHg 44%
    13:00 +36°C° 0 mm 0 m/S 725 mmHg 38%
    14:00 +34°C° 0 mm 0 m/S 725 mmHg 42%
    15:00 +33°C° 0 mm 0 m/S 725 mmHg 47%
    16:00 +31°C° 0 mm 0 m/S 724 mmHg 51%
    17:00 +30°C° 0 mm 0 m/S 725 mmHg 56%
    18:00 +28°C° 0 mm 0 m/S 725 mmHg 60%
    19:00 +26°C° 0 mm 0 m/S 725 mmHg 65%
    20:00 +26°C° 0,3 mm 0 m/S 726 mmHg 69%
    21:00 +27°C° 0,3 mm 1 m/S 726 mmHg 74%
    22:00 +26°C° 0,3 mm 1 m/S 726 mmHg 78%
    23:00 +25°C° 0,5 mm 1 m/S 726 mmHg 82%
    Mehr zeigen